Location: Brno
(49.2000°N, 16.6330°E)
Time: 02:48:12
(UTC+02:00)

CARTOSAT-1 - Visible Passes

Search period start: 20 April 2015 00:00
Search period end: 30 April 2015 00:00
Orbit: 616 x 620 km, 97.8° (Epoch: 19 April)

Date Brightness Start Highest point End Pass type
(mag) Time Alt. Az. Time Alt. Az. Time Alt. Az.
20 Apr 5.9 20:48:14 10° ENE 20:48:19 10° NE 20:48:36 10° NE visible
20 Apr 3.5 22:23:00 57° SE 22:23:41 68° ENE 22:27:59 10° N visible
21 Apr 5.9 00:00:07 14° W 00:00:19 14° W 00:02:39 10° NW visible
21 Apr 5.6 21:02:41 10° E 21:04:50 14° ENE 21:07:08 10° NNE visible
21 Apr 3.5 22:39:48 66° S 22:40:23 83° WSW 22:44:44 10° NNW visible
22 Apr 5.3 21:19:30 14° E 21:21:22 19° ENE 21:24:28 10° NNE visible
22 Apr 3.9 22:56:37 52° SW 22:57:08 56° W 23:01:24 10° NNW visible
23 Apr 4.9 21:36:18 20° E 21:37:57 26° ENE 21:41:33 10° N visible
23 Apr 4.5 23:13:25 37° WSW 23:13:55 38° W 23:17:58 10° NNW visible
24 Apr 4.4 21:53:06 28° ESE 21:54:33 36° ENE 21:58:32 10° N visible
24 Apr 5.1 23:30:14 26° WSW 23:30:45 27° W 23:34:25 10° NW visible
25 Apr 3.9 22:09:55 37° ESE 22:11:11 51° ENE 22:15:24 10° N visible
25 Apr 5.6 23:47:02 18° W 23:47:38 19° W 23:50:40 10° NW visible
26 Apr 5.8 20:51:22 10° ENE 20:52:27 11° ENE 20:53:42 10° NE visible
26 Apr 3.5 22:26:42 48° SSE 22:27:51 75° ENE 22:32:11 10° N visible
27 Apr 6.0 00:03:50 13° W 00:04:34 13° W 00:06:32 10° WNW visible
27 Apr 5.5 21:06:32 10° E 21:08:56 15° ENE 21:11:29 10° NNE visible
27 Apr 3.6 22:43:30 50° S 22:44:33 75° WSW 22:48:53 10° NNW visible
28 Apr 5.2 21:23:11 14° E 21:25:29 21° ENE 21:28:43 10° NNE visible
28 Apr 4.1 23:00:18 42° SW 23:01:17 51° W 23:05:31 10° NNW visible
29 Apr 4.8 21:39:58 19° ESE 21:42:03 28° ENE 21:45:46 10° N visible
29 Apr 4.7 23:17:06 31° SW 23:18:04 35° W 23:22:02 10° NNW visible
